#timestamp,LO_Frequency,Hit,StdDev 
1587373215.4,286047000.2,N
1587373235.2,286047000.0,N
1587373255.0,286046998.9,N
1587373255.9,286046998.9,N
1587373275.8,286046996.3,N
1587373295.6,286046995.2,N
1587373315.5,286046997.1,N
1587373335.3,286046997.1,N
1587373355.1,286046995.9,N
1587373375.9,286046997.8,N
1587373395.7,286046996.8,N
1587373415.5,286046997.3,N
1587373435.4,286046996.6,N
1587373455.2,286046998.0,N
1587373475.1,286046995.1,N
1587373476.0,286046995.1,N
1587373495.8,286046995.6,N
1587373515.6,286046996.0,N
1587373535.5,286046992.4,N
1587373555.3,286046992.7,Y
1587373575.1,286046996.2,P
1587373595.9,286046994.1,P
1587373615.7,286046993.6,P
1587373635.6,286046996.0,N
1587373655.4,286046997.5,N
1587373675.2,286046998.1,N
1587373695.1,286046997.5,N
1587373696.0,286046997.5,N
1587373715.8,286046995.0,Y
1587373735.7,286047001.9,P
1587373755.5,286047001.8,N
1587373775.3,286047000.0,N
1587373795.2,286047000.3,N
1587373815.0,286046998.3,N
1587373815.9,286046998.3,N
1587373835.7,286047000.7,N
1587373855.6,286047000.5,N
1587373875.4,286047002.6,N
1587373895.3,286047002.0,N
1587373915.1,286047001.7,N
1587373935.8,286047002.4,N
1587373955.7,286046999.8,N
1587373975.5,286047000.0,N
1587373995.4,286047000.5,N
1587374015.2,286047001.0,N
1587374035.0,286046999.9,N
1587374035.9,286046999.9,N
1587374055.8,286047001.9,N
1587374075.6,286047002.8,N
1587374095.4,286047002.2,N
1587374115.3,286047000.1,N
1587374135.1,286047002.8,N
1587374155.0,286047002.6,N
1587374155.9,286047002.6,N
1587374175.8,286047002.7,N
1587374195.6,286046999.9,N
1587374215.4,286047002.8,N
1587374235.3,286047002.5,N
1587374255.1,286047002.6,N
1587374275.8,286047000.8,N
1587374295.7,286047000.3,N
1587374315.5,286047005.9,Y
1587374335.4,286047003.7,P
1587374355.2,286047005.6,P
1587374375.0,286047005.6,P
1587374375.9,286047005.6,Y
1587374395.8,286046999.9,P
1587374415.6,286046999.8,N
1587374435.5,286047001.5,N
1587374455.3,286047000.9,N
1587374475.1,286047000.0,N
1587374495.9,286047003.9,N
1587374515.7,286047003.2,N
1587374535.5,286047003.8,N
1587374555.4,286047001.9,N
1587374575.2,286047001.9,N
1587374595.1,286047002.0,N
1587374596.0,286047002.0,N
1587374615.8,286047000.3,N
1587374635.6,286047002.1,N
1587374655.5,286047000.3,N
1587374675.3,286047000.1,N
1587374695.2,286047001.2,N
1587374715.0,286046998.3,N
1587374715.9,286046998.3,N
1587374735.7,286046998.3,N
1587374755.6,286046998.2,N
1587374775.4,286046999.1,N
1587374795.3,286046999.2,N
1587374815.1,286046995.6,N
1587374816.0,286046995.6,N
1587374835.8,286046993.5,N
1587374855.7,286046995.7,N
1587374875.5,286046997.8,N
1587374895.4,286046996.1,N
1587374915.2,286046993.4,N
1587374935.0,286046997.5,N
1587374935.9,286046997.5,N
1587374955.8,286046998.7,N
1587374975.6,286046999.2,N
1587374995.5,286047000.7,N
1587375015.3,286047000.6,N
1587375035.1,286046999.3,N
1587375055.9,286047000.9,N
1587375075.7,286047002.5,N
1587375095.5,286047000.3,N
1587375115.7,286046998.7,N
1587375135.6,286046996.6,N
1587375155.4,286046998.3,N
1587375175.3,286046998.6,N
1587375195.1,286046999.5,N
1587375196.0,286046999.5,N
1587375215.8,286046997.4,N
1587375235.7,286046996.7,N
1587375255.5,286046999.5,N
1587375275.4,286046998.8,N
1587375295.2,286046996.5,N
1587375315.0,286046997.2,N
1587375315.9,286046997.2,N
1587375335.8,286046999.4,N
1587375355.6,286046999.6,N
1587375375.5,286046997.0,N
1587375395.3,286046997.4,N
1587375415.1,286046997.5,N
1587375435.9,286046996.3,N
1587375455.7,286046991.8,Y
1587375475.6,286046997.3,P
1587375495.4,286046997.0,P
1587375515.2,286046998.3,N
1587375535.1,286046999.5,N
1587375536.0,286046999.5,N
1587375555.8,286046998.3,N
1587375575.7,286047001.1,N
1587375595.5,286047002.1,N
1587375615.3,286047000.8,N
1587375635.2,286047002.3,N
1587375655.0,286047001.9,N
1587375655.9,286047001.9,N
1587375675.8,286047000.0,N
1587375695.6,286047000.6,N
1587375715.4,286046999.8,N
1587375735.3,286046997.2,N
1587375755.1,286046995.7,N
1587375775.8,286046997.2,N
1587375795.7,286046999.5,N
1587375815.5,286046995.4,N
1587375835.4,286046995.4,N
1587375855.2,286046999.6,N
1587375875.0,286046998.0,N
1587375875.9,286046998.0,N
1587375895.8,286046993.4,Y
1587375915.6,286046995.7,P
1587375935.5,286046995.1,N
1587375955.3,286046993.3,P
1587375975.1,286046996.4,N
1587375995.9,286046995.9,N
1587376015.7,286046995.2,N
1587376035.6,286046996.7,N
1587376055.4,286046999.4,N
1587376075.2,286046999.3,N
1587376095.1,286047001.1,N
1587376096.0,286047001.1,N
1587376115.8,286047000.5,N
1587376135.7,286047002.7,N
1587376155.5,286046998.4,N
1587376175.3,286046998.7,N
1587376195.2,286046999.4,N
1587376215.0,286047000.9,N
1587376215.9,286047000.9,N
1587376235.8,286047001.1,N
1587376255.6,286047001.0,N
1587376275.4,286047000.8,N
1587376295.3,286047000.9,N
1587376315.1,286047001.5,N
1587376335.9,286047000.7,N
1587376355.7,286047002.6,N
1587376375.5,286047000.0,N
1587376395.4,286047001.1,N
1587376415.2,286046999.0,N
1587376435.0,286046998.0,N
1587376436.0,286046998.0,N
1587376455.8,286046997.4,N
1587376475.9,286046997.0,N
1587376495.7,286046997.2,N
1587376515.5,286046996.7,N
1587376535.4,286046999.6,N
1587376555.2,286046996.5,N
1587376575.1,286046998.2,N
1587376576.0,286046998.2,N
1587376595.8,286046999.5,N
1587376615.6,286046997.4,N
1587376635.5,286046995.4,N
1587376655.3,286046997.6,N
1587376675.2,286046997.1,N
1587376695.0,286046999.6,N
1587376695.9,286046999.6,N
1587376715.8,286046997.2,N
1587376735.6,286046997.0,N
1587376755.4,286046995.3,N
1587376775.3,286046996.6,N
1587376795.1,286046998.6,N
